Metcalfe, MS

4:04 PM CDT on September 26, 2016 (GMT -0500)
Mid Delta Regional

Weather History for KGLH - March, 2013

Change the Weather History Date:

Friday, March 29, 2013

  Actual Average Record
Temperature  
Mean Temperature 54 °F 58 °F  
Max Temperature 62 °F 69 °F 85 °F (2007)
Min Temperature 46 °F 47 °F 29 °F (1937)
Degree Days  
Heating Degree Days 11 8  
Month to date heating degree days 464 321  
Since 1 July heating degree days 2467 2630  
Cooling Degree Days 0 1  
Month to date cooling degree days 2 15  
Year to date cooling degree days 12 20  
Growing Degree Days 5 (Base 50)    
Moisture  
Dew Point 49 °F    
Average Humidity 76    
Maximum Humidity 93    
Minimum Humidity 59    
Precipitation  
Precipitation T in 0.19 in 2.72 in (1975)
Month to date precipitation 3.94 4.17  
Year to date precipitation 16.40 14.16  
Sea Level Pressure  
Sea Level Pressure 30.23 in    
Wind  
Wind Speed 7 mph (SE)    
Max Wind Speed 16 mph    
Max Gust Speed 20 mph    
Visibility 10 miles    
Events Rain    
T = Trace of Precipitation, MM = Missing Value Source: NWS Daily Summary

Daily Weather History Graph

Daily Weather History Graph

Search for Another Location

Airport or City:

Trip Planner

Search our weather history database for the weather conditions in past years. The results will help you decide how hot, cold, wet, or windy it might be!

Date:

Astronomy

Mar. 29, 2013 Rise Set
Actual Time 6:55 AM CDT 7:22 PM CDT
Civil Twilight 6:30 AM CDT 7:47 PM CDT
Nautical Twilight 6:01 AM CDT 8:16 PM CDT
Astronomical Twilight 5:31 AM CDT 8:46 PM CDT
Moon 10:12 PM CDT (3/29) 8:12 AM CDT (3/29)
Length of Visible Light 13h 17m
Length of Day
12h 27m
Waning Gibbous, 93% of the Moon is Illuminated
Mar 29
Waning Gibbous
Apr 2
Last Quarter
Apr 10
New
Apr 18
First Quarter
Apr 25
Full

Hourly Weather History & Observations

Time (CDT) Temp. Dew Point Humidity Pressure Visibility Wind Dir Wind Speed Gust Speed Precip Events Conditions
12:53 AM 53.1 °F 39.9 °F 61% 30.27 in 10.0 mi ESE 4.6 mph - N/A   Clear
1:53 AM 51.1 °F 39.9 °F 66% 30.27 in 10.0 mi SSE 5.8 mph - N/A   Clear
2:53 AM 50.0 °F 41.0 °F 71% 30.25 in 10.0 mi SSE 5.8 mph - N/A   Mostly Cloudy
3:53 AM 51.1 °F 39.0 °F 63% 30.24 in 10.0 mi SSE 6.9 mph - N/A   Clear
4:53 AM 48.9 °F 39.0 °F 69% 30.23 in 10.0 mi South 5.8 mph - N/A   Clear
5:53 AM 50.0 °F 39.0 °F 66% 30.24 in 10.0 mi South 5.8 mph - N/A   Clear
6:53 AM 48.0 °F 41.0 °F 77% 30.26 in 10.0 mi South 6.9 mph - N/A   Partly Cloudy
7:53 AM 51.1 °F 45.0 °F 80% 30.26 in 10.0 mi South 8.1 mph - N/A   Clear
8:53 AM 55.0 °F 48.0 °F 77% 30.25 in 10.0 mi SSW 5.8 mph - N/A   Mostly Cloudy
9:53 AM 57.0 °F 48.9 °F 74% 30.26 in 10.0 mi SSW 9.2 mph - N/A   Overcast
10:53 AM 57.9 °F 48.0 °F 70% 30.27 in 10.0 mi WSW 4.6 mph - N/A   Overcast
11:53 AM 57.9 °F 51.1 °F 78% 30.27 in 10.0 mi East 6.9 mph - 0.00 in Rain Light Rain
12:53 PM 57.9 °F 53.1 °F 84% 30.29 in 10.0 mi ENE 9.2 mph - 0.00 in Rain Light Rain
1:53 PM 55.9 °F 52.0 °F 87% 30.26 in 10.0 mi NE 16.1 mph - 0.00 in Rain Light Rain
2:10 PM 55.4 °F 53.6 °F 94% 30.25 in 9.0 mi NNE 15.0 mph - 0.00 in Rain Light Rain
2:53 PM 57.0 °F 53.1 °F 87% 30.21 in 10.0 mi SE 12.7 mph - 0.00 in   Overcast
3:53 PM 57.9 °F 53.1 °F 84% 30.20 in 10.0 mi SE 5.8 mph - N/A   Overcast
4:53 PM 60.1 °F 53.1 °F 78% 30.18 in 10.0 mi SSE 5.8 mph - N/A   Overcast
5:53 PM 62.1 °F 55.0 °F 78% 30.18 in 10.0 mi ESE 3.5 mph - N/A   Mostly Cloudy
6:53 PM 61.0 °F 54.0 °F 78% 30.17 in 10.0 mi SE 4.6 mph - N/A   Overcast
7:53 PM 57.9 °F 54.0 °F 87% 30.17 in 10.0 mi NE 4.6 mph - N/A   Overcast
8:53 PM 57.0 °F 54.0 °F 89% 30.17 in 10.0 mi ENE 4.6 mph - N/A   Overcast
9:53 PM 57.0 °F 55.0 °F 93% 30.19 in 8.0 mi NE 9.2 mph - N/A   Overcast
10:53 PM 57.0 °F 53.1 °F 87% 30.18 in 10.0 mi NE 5.8 mph - N/A   Overcast
11:53 PM 57.9 °F 52.0 °F 81% 30.18 in 10.0 mi East 4.6 mph - N/A   Overcast